Regional Weather Roundup
Issued by NWS

Home | Current Version | Previous Version | Graphics & Text | Print | Product List | Glossary On
Versions: 1 2 3 4 5 6 7 8 9 10 11 12 13 14 15 16 17 18 19 20 21 22 23 24 25 26 27 28 29 30 31 32 33 34 35 36 37 38 39 40 41 42 43 44 45 46 47 48 49 50
000
ASUS45 KABQ 272210
RWRNM
NEW MEXICO REGIONAL WEATHER ROUNDUP
NATIONAL WEATHER SERVICE ALBUQUERQUE NM
400 PM MDT TUE SEP 27 2016

NOTE: "FAIR" MEANS FEW OR NO CLOUDS BELOW 12,000 FEET AGL WITH NO
       SIGNIFICANT WEATHER OR OBSTRUCTIONS TO VISION.

      THIS PRODUCT IS RELEASED AS TWO VERSIONS.  ONE VERSION NEAR
      THE TOP OF THE HOUR CONTAINING PRELIMINARY DATA FROM ALBUQUERQUE
      AND OTHER STATIONS.  A FINAL VERSION WITH ADDITIONAL DATA IS
      ISSUED ABOUT 10 MINUTES AFTER THE HOUR.

NMZ501-503-504-510>518-272300-
NORTHWEST PLATEAU/NORTHCENTRAL MOUNTAINS

CITY           SKY/WX    TMP DP  RH WIND       PRES   REMARKS
FARMINGTON     FAIR      75  30  19 S9        30.19F
LOS ALAMOS     FAIR      70  22  16 S8        30.31S
SANTA FE       FAIR      74  20  13 MISG      30.24F
TAOS           FAIR      73  28  19 SW10      30.28F

$$
NMZ402-403-502-505>509-272300-
WESTCENTRAL MOUNTAINS/SOUTHWEST MOUNTAINS

CITY           SKY/WX    TMP DP  RH WIND       PRES   REMARKS
GALLUP         FAIR      72  37  28 N7        30.23F
SILVER CITY    FAIR      70  47  43 SE13G18   30.21F

$$
NMZ407-409-411-412-272300-
SOUTHERN DESERTS

CITY           SKY/WX    TMP DP  RH WIND       PRES   REMARKS
DEMING         FAIR      72  48  42 E12       30.17F
LAS CRUCES     FAIR      70  46  40 E3        30.19F
HOLLOMAN AFB   FAIR      73  38  28 VRB2      30.15F
ALAMOGORDO     FAIR      75  41  29 NW6       30.17F
T OR C         FAIR      73  47  39 S8        30.17F

$$
NMZ519>523-272300-
CENTRAL VALLEYS/CENTRAL HIGHLANDS

CITY           SKY/WX    TMP DP  RH WIND       PRES   REMARKS
ALBUQUERQUE    FAIR      75  34  22 CALM      30.20F
DOUBLE EAGLE   MOSUNNY   75  36  23 CALM      30.23F
MORIARTY ARPT  FAIR      74  25  16 S6        30.25F
CLINES CORNERS NOT AVBL
BELEN          FAIR      75  37  24 CALM      30.21S
SOCORRO        FAIR      77  41  27 SE15      30.17F

$$
NMZ524>526-539-540-272300-
SOUTHCENTRAL MOUNTAINS

CITY           SKY/WX    TMP DP  RH WIND       PRES   REMARKS
RUIDOSO        FAIR      68  36  30 SW6       30.29F

$$
NMZ527>531-272300-
NORTHEAST HIGHLANDS/NORTHEAST PLAINS

CITY           SKY/WX    TMP DP  RH WIND       PRES   REMARKS
LAS VEGAS      FAIR      73  19  13 S8        30.27F
RATON          FAIR      75  30  19 S7        30.21F
CLAYTON        FAIR      80  34  19 CALM      30.15F

$$
NMZ532>537-272300-
EASTCENTRAL PLAINS

CITY           SKY/WX    TMP DP  RH WIND       PRES   REMARKS
TUCUMCARI      FAIR      84  30  14 NW7       30.10F
CANNON AFB     NOT AVBL
CLOVIS AIRPORT FAIR      75  41  29 S6        30.16F

$$
NMZ028-029-538-272300-
SOUTHEAST PLAINS

CITY           SKY/WX    TMP DP  RH WIND       PRES   REMARKS
ROSWELL        FAIR      77  28  16 SE7       30.14F
ARTESIA        FAIR      73  43  33 MISG      30.15F
CARLSBAD       NOT AVBL
HOBBS          SUNNY     73  25  16 VRB3      30.16F


$$




USA.gov is the U.S. government's official web portal to all federal, state and local government web resources and services.